Weather History for KIWI - February, 2013

Change the Weather History Date:

Saturday, February 2, 2013

  Actual Average Record
Temperature  
Mean Temperature 16 °F -  
Max Temperature 25 °F 30 °F 48 °F (2008)
Min Temperature 7 °F 10 °F -2 °F (2005)
Degree Days  
Heating Degree Days 49    
Moisture  
Dew Point 5 °F    
Average Humidity 54    
Maximum Humidity 80    
Minimum Humidity 35    
Precipitation  
Precipitation 0.00 in - - ()
Sea Level Pressure  
Sea Level Pressure 30.12 in    
Wind  
Wind Speed 1 mph (South)    
Max Wind Speed 7 mph    
Max Gust Speed -    
Visibility 10 miles    
Events      
Averages and records for this station are not official NWS values.
T = Trace of Precipitation, MM = Missing Value Source: NWS Daily Summary

Daily Weather History Graph

Daily Weather History Graph

Search for Another Location

Airport or City:

Trip Planner

Search our weather history database for the weather conditions in past years. The results will help you decide how hot, cold, wet, or windy it might be!

Date:

Astronomy

Feb. 02, 2013 Rise Set
Actual Time 6:54 AM EST 4:51 PM EST
Civil Twilight 6:24 AM EST 5:21 PM EST
Nautical Twilight 5:49 AM EST 5:56 PM EST
Astronomical Twilight 5:16 AM EST 6:29 PM EST
Moon No Moon Rise 9:47 AM EST (2/2)
Length of Visible Light 10h 57m
Length of Day
9h 56m
Waning Gibbous, 60% of the Moon is Illuminated
Feb 2
Waning Gibbous
Feb 3
Last Quarter
Feb 10
New
Feb 17
First Quarter
Feb 25
Full

Hourly Weather History & Observations

Time (EST) Temp. Windchill Dew Point Humidity Pressure Visibility Wind Dir Wind Speed Gust Speed Precip Events Conditions
12:53 AM 15.1 °F - -2.0 °F 47% 30.05 in 10.0 mi Calm Calm - N/A   Clear
1:53 AM 14.0 °F - -0.9 °F 52% 30.08 in 10.0 mi Calm Calm - N/A   Clear
2:53 AM 10.9 °F - 1.9 °F 67% 30.09 in 10.0 mi Calm Calm - N/A   Clear
4:53 AM 9.0 °F - 1.9 °F 73% 30.13 in 10.0 mi Calm Calm - N/A   Clear
5:53 AM 8.1 °F - 1.9 °F 76% 30.16 in 10.0 mi Calm Calm - N/A   Clear
6:53 AM 7.0 °F - 1.9 °F 80% 30.19 in 10.0 mi Calm Calm - N/A   Clear
7:53 AM 12.9 °F - 5.0 °F 71% 30.21 in 10.0 mi Calm Calm - N/A   Clear
8:53 AM 17.1 °F 11.7 °F -2.0 °F 43% 30.20 in 10.0 mi Variable 3.5 mph - N/A   Clear
9:53 AM 19.0 °F 13.9 °F -2.0 °F 40% 30.20 in 10.0 mi Variable 3.5 mph - N/A   Clear
10:53 AM 21.0 °F 14.6 °F -2.9 °F 35% 30.19 in 10.0 mi Variable 4.6 mph - N/A   Clear
11:53 AM 23.0 °F 14.7 °F -0.9 °F 35% 30.16 in 10.0 mi SSE 6.9 mph - N/A   Clear
12:53 PM 24.1 °F 17.0 °F -0.0 °F 35% 30.14 in 10.0 mi Variable 5.8 mph - N/A   Clear
1:53 PM 24.1 °F 17.0 °F 5.0 °F 44% 30.13 in 10.0 mi SSW 5.8 mph - N/A   Overcast
2:53 PM 24.1 °F 16.0 °F 8.1 °F 51% 30.13 in 10.0 mi South 6.9 mph - N/A   Mostly Cloudy
3:53 PM 24.1 °F 17.0 °F 6.1 °F 46% 30.11 in 10.0 mi South 5.8 mph - N/A   Clear
4:53 PM 24.1 °F - 6.1 °F 46% 30.10 in 10.0 mi Calm Calm - N/A   Mostly Cloudy
5:53 PM 25.0 °F - 8.1 °F 49% 30.10 in 10.0 mi Calm Calm - N/A   Overcast
6:53 PM 24.1 °F - 10.0 °F 55% 30.10 in 10.0 mi Calm Calm - N/A   Overcast
7:53 PM 24.1 °F - 10.0 °F 55% 30.10 in 10.0 mi Calm Calm - N/A   Overcast
8:53 PM 24.1 °F - 10.9 °F 57% 30.09 in 10.0 mi Calm Calm - N/A   Overcast
9:53 PM 24.1 °F - 12.0 °F 60% 30.08 in 10.0 mi Calm Calm - N/A   Overcast
10:53 PM 23.0 °F - 12.9 °F 65% 30.07 in 10.0 mi Calm Calm - N/A   Overcast
11:53 PM 23.0 °F - 12.9 °F 65% 30.06 in 10.0 mi Calm Calm - N/A   Overcast